Home   Weather   Portsmouth   Past weeks

Flag for USA Past Weather in Portsmouth, Virginia, USA — Yesterday and Last 2 Weeks

Now
50 °F

Overcast.


Feels Like: 47 °F
Forecast: 46 / 55 °F
Wind: 8 mph from Northeast

Location: Norfolk Naval Air Station

Current Time: Dec 6, 2016 at 3:17:34 am

Latest Report: Dec 6, 2016 at 1:59 am


Visibility: 10 mi

Pressure: 30.09 "Hg

Humidity: 77%

Dew Point: 43 °F

Location of PortsmouthLocation

Past Weather in Portsmouth — Graph

°F

Portsmouth Temperature Yesterday

Maximum temperature yesterday: 54 °F (at 1:59 pm)
Minimum temperature yesterday: 44 °F (at 12:59 am)
Average temperature yesterday: 49 °F

High & Low Weather Summary for the Past Weeks

 TemperatureHumidityPressure
High76 °F (Nov 30, 12:59 pm)97% (Nov 24, 9:59 pm)30.39 "Hg (Nov 24, 9:59 pm)
Low32 °F (Nov 22, 6:59 am)19% (Nov 22, 2:59 pm)29.65 "Hg (Nov 30, 11:59 pm)
Average51 °F66%30.12 "Hg
* Reported Nov 21 1:59 am — Dec 6 1:59 am, Portsmouth, Weather by CustomWeather, © 2016

Note: Actual official high and low records may vary slightly from our data, if they occured in-between our weather recording intervals... More about our weather records

Advertising

Portsmouth Weather History for the Previous 24 Hours

Scroll right to see more
 ConditionsComfort  
Time TempWeatherWind HumidityBarometerVisibility
1:59 am
Tue, Dec 6
50 °FOvercast.8 mph77%30.09 "Hg10 mi
12:59 am49 °FOvercast.5 mph74%30.11 "Hg10 mi
11:59 pm
Mon, Dec 5
50 °FOvercast.3 mph68%30.12 "Hg10 mi
10:59 pm50 °FOvercast.5 mph74%30.11 "Hg10 mi
9:59 pm50 °FOvercast.5 mph74%30.11 "Hg10 mi
8:59 pm50 °FOvercast.9 mph71%30.09 "Hg10 mi
7:59 pm49 °FOvercast.9 mph74%30.10 "Hg10 mi
6:59 pm49 °FOvercast.10 mph77%30.08 "Hg10 mi
5:59 pm48 °FPassing clouds.9 mph83%30.04 "Hg10 mi
4:59 pm49 °FPassing clouds.6 mph80%30.06 "Hg10 mi
3:59 pm51 °FPartly sunny.8 mph77%30.04 "Hg10 mi
2:59 pm54 °FPartly sunny.9 mph69%30.03 "Hg10 mi
1:59 pm54 °FScattered clouds.8 mph74%30.02 "Hg10 mi
12:59 pm52 °FBroken clouds.10 mph77%30.02 "Hg10 mi
11:59 am51 °FBroken clouds.9 mph86%30.02 "Hg8 mi
10:59 am50 °FLow clouds.9 mph89%30.02 "Hg7 mi
9:59 am50 °FMostly cloudy.7 mph89%30.01 "Hg10 mi
8:59 am49 °FPartly sunny.5 mph93%29.99 "Hg9 mi
7:59 am48 °FLow clouds.7 mph93%29.99 "Hg8 mi
6:59 am47 °FFog.7 mph93%30.00 "Hg4 mi
5:59 am47 °FLight rain. Fog.5 mph93%30.01 "Hg4 mi
5:04 am47 °FLight rain. Fog.5 mph93%30.02 "Hg3 mi
4:59 am47 °FLight rain. Fog.5 mph93%30.02 "Hg3 mi
3:59 am46 °FLight rain. Fog.5 mph93%30.01 "Hg3 mi
Weather by CustomWeather, © 2016

See weather overviewHow to use our weather pages